Theta_e
308 307 307 309 310 310 311 310 309 308 311 314 315 315 315 314 303 307 309 307 308 308 306 309 310 311 313 316 317 319 323 325 324 325 329 326 326 323 319 319 319 317 314 315 317
309 308 307 307 310 310 310 308 308 307 307 310 314 315 315 313 308 308 307 306 305 304 305 307 311 312 314 317 317 319 321 321 322 326 327 326 325 323 321 321 318 315 314 316 316
309 309 306 308 307 310 310 307 307 307 306 306 311 314 315 313 308 309 307 306 305 303 304 308 308 311 314 317 316 318 320 320 323 325 325 326 326 322 321 322 320 316 314 316 316
310 309 308 308 307 306 309 307 306 306 306 305 308 314 314 311 310 311 307 306 304 304 308 307 308 312 315 317 317 316 317 319 322 323 324 326 324 323 321 321 317 318 315 316 316
310 310 308 307 309 306 306 307 307 306 305 305 306 315 314 315 312 306 304 306 306 306 307 307 308 311 315 316 316 315 316 318 319 322 323 324 324 322 320 316 315 315 316 316 316
309 309 310 308 308 308 305 308 307 304 305 304 304 312 314 315 311 304 303 306 307 307 305 306 309 310 313 314 315 315 316 317 319 322 323 324 323 322 322 314 314 316 316 317 316
309 308 308 310 309 310 307 305 307 305 302 303 307 312 311 313 311 309 305 307 307 307 306 306 307 310 312 314 315 315 315 318 320 321 324 322 325 322 321 316 316 315 315 316 316
306 309 308 310 308 309 309 307 306 306 303 302 309 311 311 311 309 308 305 304 306 306 306 306 307 310 312 315 316 316 317 320 318 320 322 322 327 324 320 318 318 315 314 315 315
305 306 309 308 309 308 308 309 305 306 303 303 311 310 310 307 306 307 304 304 306 306 306 306 307 311 314 316 316 317 315 317 318 321 320 321 326 323 319 318 319 317 315 314 313
306 305 308 308 307 307 308 308 306 307 305 307 310 309 308 310 306 303 303 305 307 307 307 307 309 311 312 314 316 316 316 315 316 321 321 321 322 321 318 319 319 318 315 313 312
306 305 307 306 306 306 309 307 307 309 306 308 309 308 305 305 304 303 305 306 307 307 306 307 308 310 312 313 314 314 315 315 315 317 321 321 321 321 317 317 318 318 316 315 313
306 306 304 305 305 305 308 308 308 308 310 307 308 310 309 308 307 304 305 306 307 307 306 307 307 308 311 312 313 314 316 316 315 314 316 317 319 319 318 317 317 317 317 316 314
305 305 305 305 304 304 308 309 307 307 308 307 308 308 309 311 311 308 305 306 306 307 306 307 307 308 310 311 313 314 316 317 317 313 312 313 314 315 315 316 317 318 318 317 316
304 305 305 305 306 306 307 308 308 306 308 307 307 308 309 311 312 310 305 305 306 306 306 306 307 307 308 311 312 314 315 316 315 315 316 312 314 312 313 314 315 315 316 316 315
302 303 304 304 305 306 306 308 307 306 311 306 307 308 309 310 308 310 306 305 305 305 306 307 306 308 308 309 312 315 315 316 316 316 314 311 311 309 313 314 314 313 314 314 314
299 302 303 305 305 305 306 308 305 307 310 307 309 311 311 310 309 306 305 305 304 305 306 306 304 308 309 309 311 314 314 314 314 314 315 313 311 313 311 312 311 309 308 309 308
299 298 302 304 305 304 306 305 307 309 307 308 311 310 311 311 311 306 306 305 305 305 305 305 305 306 308 311 313 314 314 318 317 315 315 306 310 312 309 309 308 307 307 306 307
298 298 300 301 303 304 307 307 308 306 307 307 309 309 312 311 310 307 306 305 303 303 304 304 305 306 307 311 313 313 313 318 316 317 311 305 308 310 307 306 306 306 306 306 306
299 297 297 297 301 304 307 309 308 307 306 308 309 310 309 310 310 308 307 306 304 303 305 303 303 304 307 308 310 313 314 311 309 303 310 308 307 307 305 306 305 306 306 306 306
298 294 295 296 302 304 307 309 308 307 307 309 310 309 309 310 309 309 308 307 306 304 303 305 306 305 304 306 307 310 310 311 310 308 312 308 308 307 307 306 305 305 305 305 305
296 296 297 297 303 304 308 307 307 307 307 308 308 308 308 310 309 309 309 308 306 306 304 303 307 305 305 306 309 307 310 310 309 311 313 312 308 303 307 305 305 306 305 304 303
294 297 297 297 304 302 307 306 307 306 306 308 307 308 308 308 309 309 309 308 308 306 304 303 307 305 305 304 304 306 310 310 310 309 305 309 308 302 306 305 305 306 305 303 303
296 296 297 299 302 304 303 306 307 307 306 307 308 307 307 308 309 308 309 308 307 308 305 305 307 303 305 305 304 305 306 309 308 306 306 308 307 302 305 305 305 304 303 303 303
295 298 298 297 296 301 304 306 306 307 307 307 307 307 307 307 308 309 309 308 307 306 308 305 308 307 305 305 305 305 306 306 309 309 307 305 304 305 305 304 304 303 303 303 303
294 297 297 300 298 298 302 305 306 306 308 308 308 307 308 306 308 309 308 306 305 306 308 306 302 307 305 304 306 306 306 306 306 309 307 306 304 305 306 304 302 303 303 304 304
296 296 297 298 298 298 299 306 306 308 307 307 306 308 307 307 308 308 309 306 306 306 305 307 305 306 304 308 305 305 307 306 306 306 308 306 305 305 305 302 302 304 304 305 304
293 293 297 298 298 297 297 299 306 307 307 307 308 307 307 307 307 307 307 306 307 307 305 306 303 303 302 308 308 307 307 307 306 305 306 307 306 304 303 303 303 304 304 305 304
Wind_Speed
16 14 15 13 12 12 12 12 13 13 12 15 15 16 20 23 24 14 14 10 6 16 15 8 9 10 11 4 6 5 4 7 14 12 7 8 7 2 4 6 3 3 4 13 31
18 16 15 14 12 12 11 13 12 13 13 14 14 17 18 22 21 18 13 15 14 14 6 12 7 11 5 7 5 5 5 13 12 9 5 12 8 8 4 8 4 6 5 29 29
21 19 18 16 13 12 11 12 13 13 13 13 13 15 17 21 9 0 3 12 14 14 9 11 14 8 10 8 8 7 11 15 7 4 6 5 6 7 6 8 8 11 13 18 24
22 21 19 18 16 13 12 12 12 14 13 13 13 13 15 11 6 2 2 5 5 8 7 8 7 6 5 10 11 10 13 15 6 3 4 3 2 3 6 1 8 13 21 19 14
23 23 21 20 19 16 14 13 13 12 13 13 12 12 10 8 10 4 6 6 0 4 9 10 11 9 9 8 10 12 12 14 5 1 6 8 7 5 9 6 8 16 17 16 15
23 22 24 22 21 18 16 15 13 11 12 12 11 11 6 15 8 5 7 5 4 8 9 12 6 9 7 12 9 6 11 14 6 6 5 4 6 7 8 12 9 13 14 15 14
25 24 23 24 21 21 18 16 13 11 11 11 11 8 7 18 7 9 8 4 5 9 10 12 16 6 5 9 13 6 8 9 5 7 5 5 8 8 3 11 11 9 10 12 13
29 26 24 22 22 21 20 17 14 12 12 10 8 6 8 15 13 14 11 13 8 7 9 9 7 6 5 5 3 8 6 8 9 10 3 5 7 15 10 10 11 11 10 10 12
30 29 26 23 21 21 20 18 15 13 13 9 5 5 10 8 7 14 14 10 9 7 8 5 3 4 5 4 6 7 5 13 11 11 5 8 6 3 11 9 9 10 10 10 9
31 27 25 24 21 21 19 15 12 13 11 8 11 5 9 8 5 3 9 11 5 7 5 5 5 5 7 9 10 7 10 10 14 9 9 8 11 5 7 8 9 9 10 11 10
32 29 26 22 20 20 16 4 5 6 11 10 10 11 4 2 5 7 9 10 8 7 7 9 6 17 15 13 10 8 7 15 10 3 6 10 10 12 10 8 9 9 9 10 11
31 31 30 27 23 21 23 7 11 3 6 24 21 19 25 4 4 8 10 9 7 9 12 6 19 12 12 11 13 13 7 10 3 4 2 6 11 12 9 10 12 10 10 10 10
31 31 31 29 26 25 29 27 12 4 6 14 21 18 18 13 9 9 11 6 7 12 16 12 3 14 12 13 14 14 10 6 5 3 2 3 8 10 10 11 11 13 9 10 12
31 33 31 27 24 25 29 27 20 4 4 8 12 19 20 9 10 23 20 6 7 12 11 13 13 13 15 14 12 16 10 4 6 5 4 6 5 6 13 16 17 11 10 10 11
27 30 34 32 17 23 18 26 19 3 6 6 12 9 13 21 6 14 21 8 8 7 10 6 8 7 14 13 9 7 7 5 3 4 3 5 3 6 4 7 9 9 10 9 7
37 30 31 34 35 25 24 27 12 6 9 7 10 11 16 23 7 4 7 3 3 7 6 4 4 3 4 7 7 6 4 4 2 4 4 8 6 5 4 6 5 6 5 4 3
30 30 28 24 25 31 29 14 9 12 8 7 9 12 19 14 19 11 14 12 8 6 6 4 3 1 2 5 1 11 10 2 1 3 6 5 6 11 3 1 4 4 6 5 2
26 32 27 32 28 32 28 11 19 11 15 7 11 14 18 15 16 14 15 13 16 10 9 8 5 11 6 9 7 18 15 5 7 4 5 4 6 6 3 4 3 2 5 5 4
23 25 20 31 36 38 14 21 19 14 22 11 14 14 17 21 9 14 19 19 15 17 9 8 8 5 5 1 4 6 11 3 6 1 2 5 6 3 7 5 6 7 7 7 7
18 6 16 44 39 30 19 28 5 20 19 18 13 11 16 20 14 17 13 15 20 23 15 3 4 1 0 2 2 7 7 4 2 4 4 4 4 6 7 8 8 8 8 8 7
17 4 9 23 41 13 16 12 12 17 20 23 17 12 14 14 19 17 10 9 25 19 17 2 4 1 5 6 10 3 6 5 4 4 5 3 5 1 9 10 9 8 8 8 7
4 4 10 13 13 11 17 13 20 17 18 15 10 9 15 18 18 15 17 14 11 15 24 6 4 4 3 2 3 3 5 13 6 6 2 2 5 6 8 9 9 8 7 7 7
3 4 7 13 9 15 17 14 14 19 23 12 18 11 12 17 9 20 13 17 6 15 16 9 4 3 2 2 2 4 5 9 4 2 7 6 4 7 8 8 8 8 7 7 7
2 3 3 2 5 6 15 25 20 15 10 15 17 9 13 10 14 13 15 3 4 2 10 11 4 7 9 3 6 6 8 5 14 3 4 10 5 4 7 8 7 8 8 7 7
4 4 4 4 7 12 10 10 30 16 14 19 12 16 8 5 14 5 13 4 1 1 7 6 6 5 5 6 3 4 13 11 11 20 9 5 7 11 11 10 8 7 8 8 7
4 3 1 2 4 2 7 9 19 12 21 23 7 15 12 7 8 8 6 5 4 4 5 3 2 2 2 3 6 2 2 12 19 11 13 6 6 4 13 8 8 9 9 8 7
7 2 2 2 5 4 4 8 14 16 12 18 17 20 15 9 8 7 6 11 9 10 10 8 5 3 4 7 5 3 9 9 10 9 14 12 9 5 11 15 14 11 11 10 10
Wind_Direction
299 304 312 310 309 306 304 303 307 310 311 308 318 318 322 328 322 309 262 247 221 256 257 299 262 237 237 238 246 296 269 258 254 254 188 145 162 270 355 126 142 67 57 126 149
282 290 296 302 302 303 302 304 303 307 313 312 313 315 319 329 312 275 251 255 259 257 281 249 241 216 225 220 215 198 228 252 268 358 326 152 192 147 167 149 134 97 75 130 146
277 284 286 291 295 298 295 305 306 303 308 314 310 311 319 331 304 37 251 254 256 244 240 271 275 280 224 236 223 223 241 264 312 33 322 154 204 147 210 187 188 171 154 151 156
273 275 280 276 286 290 289 298 312 302 301 310 314 306 311 315 275 124 336 327 288 196 234 246 244 236 223 224 229 247 256 255 283 44 318 245 244 170 232 61 21 156 157 161 170
276 272 272 271 271 279 283 288 305 306 299 305 314 310 318 253 254 321 313 323 214 201 219 231 220 214 231 222 229 236 246 268 249 39 274 290 223 199 211 137 82 120 147 165 179
274 273 269 266 264 268 274 278 290 313 300 303 308 301 260 261 276 301 302 300 247 215 220 240 245 235 261 239 226 240 227 259 234 256 228 254 247 169 229 144 132 143 164 173 186
276 273 269 263 263 258 266 272 276 301 306 303 310 275 259 247 273 292 307 286 257 238 245 227 255 308 200 288 242 280 287 271 223 238 241 204 255 208 232 141 151 178 174 177 185
273 271 265 259 257 257 258 266 267 283 302 294 291 267 258 251 278 258 254 256 255 250 256 282 272 287 287 310 304 213 252 255 224 202 196 189 248 228 178 164 181 183 180 175 185
273 270 263 256 255 253 254 263 264 275 289 280 258 222 272 265 229 255 227 226 214 224 227 260 235 231 195 230 227 205 216 222 264 170 142 192 260 43 143 175 200 183 178 173 180
266 263 256 252 252 252 250 252 261 275 280 245 244 268 239 242 192 249 214 212 198 182 212 213 208 211 221 203 206 204 218 250 220 194 216 195 251 195 186 195 216 205 178 171 186
260 259 252 248 250 249 233 211 222 231 215 205 190 221 111 30 265 220 187 199 225 197 197 201 193 209 205 214 234 237 228 221 257 95 182 231 240 241 196 201 210 231 195 177 185
257 252 252 252 248 244 222 212 235 1 274 222 248 223 250 202 294 219 179 196 198 198 212 167 224 210 218 213 224 253 265 262 120 124 161 257 255 242 234 206 198 198 214 189 174
256 249 247 249 246 238 222 219 231 306 259 252 218 236 230 225 236 228 179 206 205 206 204 208 227 203 223 226 215 229 233 243 263 141 279 329 274 242 245 243 207 201 205 197 182
259 251 245 245 241 227 225 219 214 43 259 252 210 229 214 195 249 226 190 198 219 224 212 236 232 198 219 223 205 221 216 266 132 143 243 166 276 284 231 216 219 215 195 215 188
271 262 242 230 224 204 217 206 205 120 235 198 190 163 183 190 134 194 184 216 231 222 197 216 213 188 212 220 211 208 215 164 173 226 13 201 267 252 357 193 200 210 198 205 224
260 264 247 236 225 227 202 182 137 199 220 177 142 191 168 196 210 114 159 230 241 227 247 224 327 233 214 185 207 137 96 102 169 241 254 216 185 270 216 223 171 133 137 120 102
262 259 242 248 221 213 191 144 202 215 165 188 177 184 183 179 211 168 182 192 173 154 196 182 224 278 265 118 86 155 162 138 268 229 228 340 224 240 203 88 106 127 109 85 31
258 252 256 237 229 204 194 184 227 174 195 136 167 176 201 175 212 186 177 192 219 211 156 169 213 177 190 195 178 187 181 151 191 204 203 345 230 247 96 96 104 153 97 118 137
248 257 252 255 244 200 212 198 204 196 201 154 156 172 199 207 176 180 210 206 200 208 194 188 231 85 166 111 132 183 217 176 106 70 74 207 263 252 158 148 162 151 152 127 114
240 208 246 244 222 199 213 221 181 224 180 163 174 175 191 194 193 182 187 213 210 209 226 218 140 233 339 325 104 195 156 163 266 137 234 242 250 235 201 177 159 159 139 128 122
248 214 229 242 196 207 219 195 202 215 230 187 203 175 192 189 192 190 214 233 198 195 212 257 109 329 129 215 177 165 190 198 168 179 189 201 249 159 191 156 162 140 134 123 111
229 228 204 198 212 200 216 151 208 204 235 220 185 190 185 191 191 204 215 197 182 190 196 158 94 168 192 7 27 326 215 199 193 212 181 137 276 326 125 141 130 128 117 110 113
251 255 206 175 243 201 235 195 174 193 212 217 214 221 178 181 193 207 200 231 158 207 183 162 209 101 78 1 325 184 206 222 211 89 194 190 249 335 101 107 122 130 129 122 117
210 243 205 168 239 305 224 196 193 199 197 226 191 215 177 194 200 193 211 131 158 267 117 154 183 189 197 174 126 177 193 205 217 205 175 220 166 225 157 148 138 133 133 124 113
200 243 238 201 212 222 268 197 196 184 193 227 196 206 162 178 185 167 196 109 66 271 184 149 202 203 237 125 92 179 190 201 214 225 215 191 208 199 191 165 162 160 133 130 129
213 200 195 275 117 7 323 214 178 164 179 208 175 215 188 159 184 157 170 122 164 181 186 109 266 106 52 123 114 129 198 205 223 226 252 257 238 206 166 153 165 162 155 153 140
185 192 292 188 164 181 205 312 198 185 196 188 192 184 192 187 177 176 201 157 170 163 178 150 139 90 242 116 86 315 221 203 212 227 225 231 223 139 161 176 176 166 169 162 148